EHI
9 11 9 8 8 6 6 6 5 4 2 1 0 0 0 1 2 3 4 4 4 4 4 3 4 5 4 3 3 2 1 2 3 3 2 2 3 3 3 2 2 3 3
10 10 8 6 6 5 5 6 5 4 3 2 1 1 1 1 2 3 3 4 5 5 5 4 4 4 3 3 3 2 1 1 2 3 3 2 2 3 3 3 3 3 3
8 7 5 4 4 3 4 5 5 3 2 2 3 2 2 1 1 1 2 3 4 5 5 5 5 3 2 2 2 2 1 0 1 3 4 3 1 1 2 3 3 3 3
6 5 4 3 3 2 3 4 4 3 1 2 3 3 3 2 0 0 1 2 2 2 3 4 4 3 1 1 1 1 1 1 1 3 3 2 1 0 1 2 2 2 1
5 5 4 3 3 3 2 3 3 2 0 1 2 3 2 1 0 0 0 1 0 0 1 2 4 3 1 0 0 0 1 2 2 2 2 1 0 0 0 1 1 1 0
3 3 3 3 2 1 2 3 3 1 0 0 0 1 1 0 0 0 0 0 0 0 0 1 2 3 2 0 0 1 1 1 1 2 2 1 1 0 0 0 0 0 0
3 3 3 2 1 0 1 2 2 1 0 0 0 0 0 0 0 0 0 0 0 0 0 0 1 2 2 1 1 1 0 0 0 1 1 1 1 1 0 0 0 0 0
4 4 3 3 2 2 2 2 1 0 0 1 1 0 0 0 0 0 0 0 0 0 0 0 0 1 2 2 1 1 1 0 0 0 0 0 0 0 0 0 0 0 0
4 5 4 4 4 4 3 1 0 0 1 2 2 1 1 0 0 0 0 0 0 0 0 0 0 1 1 2 1 0 1 0 0 0 0 0 0 0 0 0 0 0 0
5 6 6 6 5 4 3 1 0 0 1 2 3 2 2 1 0 0 0 0 0 0 0 0 1 1 2 2 1 0 0 0 0 0 0 0 0 0 0 0 0 0 0
6 6 6 5 5 4 3 2 1 0 1 2 4 3 2 1 1 0 0 0 0 0 0 1 2 2 2 2 1 0 0 0 0 0 0 0 0 0 0 0 0 0 0
7 6 4 4 4 4 4 4 3 2 2 3 4 4 3 2 1 0 0 0 0 0 0 1 2 3 3 2 1 0 0 0 0 0 0 0 0 0 0 0 0 0 0
5 4 3 3 3 3 4 6 6 5 4 5 5 5 5 3 1 0 0 0 0 0 0 1 2 3 3 3 1 0 0 0 0 0 0 0 0 0 0 0 0 0 0
2 3 4 5 4 4 5 6 7 7 6 6 5 6 6 4 1 0 0 0 0 0 0 1 2 3 4 4 2 0 0 0 0 0 0 0 0 0 0 0 0 0 0
2 2 4 5 6 6 6 7 7 7 6 6 6 6 5 3 1 0 0 0 0 0 0 0 1 3 4 3 2 0 0 0 0 0 0 0 0 0 0 0 0 0 0
2 2 2 4 6 8 8 7 6 6 6 6 6 6 5 3 1 0 0 0 0 0 0 0 1 3 3 2 1 1 0 0 0 0 0 0 0 0 0 0 0 0 0
2 2 2 4 6 8 8 7 6 6 6 6 5 5 3 2 1 0 0 0 0 0 0 0 1 3 2 1 2 2 1 1 0 0 0 0 0 0 0 0 0 0 0
3 3 2 3 5 6 6 5 5 6 5 4 3 2 1 1 0 0 0 0 0 0 0 0 1 2 2 2 4 3 1 1 0 0 0 0 0 0 0 0 0 0 0
3 3 3 3 2 2 3 3 4 4 4 3 2 1 0 0 0 0 0 0 0 0 0 0 1 2 2 2 4 4 3 1 0 0 0 0 0 0 0 0 0 0 0
3 3 3 2 1 0 2 3 3 3 2 2 1 0 0 1 0 0 0 0 0 0 0 0 0 1 1 3 5 6 5 3 1 0 0 0 0 0 0 0 0 0 0
3 3 3 2 1 0 2 3 2 1 1 1 0 0 0 0 0 0 0 0 0 0 0 0 0 0 1 3 6 7 7 5 2 0 0 0 0 0 0 0 0 0 0
3 3 3 2 1 0 1 1 1 0 0 0 0 0 0 0 0 0 0 0 0 0 0 0 0 0 0 2 5 7 7 5 2 1 0 0 0 0 1 0 0 0 0
3 3 3 1 0 0 0 0 0 0 0 0 0 0 0 0 0 0 0 0 0 0 0 0 0 0 0 1 3 5 7 6 4 2 2 1 0 0 0 0 0 0 0
3 3 2 1 0 0 0 0 0 0 0 0 0 0 0 0 0 0 0 0 0 0 0 0 0 0 0 0 1 4 6 6 5 4 2 1 0 0 0 0 0 0 0
3 3 2 1 0 0 0 0 0 0 0 0 0 0 0 0 0 0 0 0 0 0 0 0 0 0 0 0 1 3 4 3 3 2 1 0 0 0 1 1 0 0 0
4 2 1 0 0 0 0 0 0 0 0 0 0 0 0 0 0 0 0 0 0 0 0 0 0 0 0 0 0 1 1 1 1 0 0 0 0 1 2 2 1 0 0
Wind_Speed
3 3 2 2 2 2 3 3 3 2 3 3 3 3 2 2 1 1 2 5 3 3 3 3 3 3 4 4 4 4 4 5 6 6 6 6 6 5 5 5 6 7 7
2 2 3 2 2 2 2 2 2 3 2 2 2 2 2 2 1 1 1 4 6 4 3 3 3 3 3 3 4 4 4 5 5 6 5 6 6 6 5 5 5 6 6
2 2 2 3 2 2 3 3 3 3 3 3 3 3 2 2 2 2 2 2 3 6 5 3 3 3 3 4 4 4 4 4 5 5 5 5 5 5 6 5 5 5 5
2 3 3 3 2 3 3 3 3 3 2 3 2 2 2 2 2 2 2 2 1 2 5 5 4 4 4 4 4 4 3 3 3 4 4 4 4 5 6 6 6 5 5
3 3 2 1 3 3 3 3 2 2 2 2 2 2 2 2 2 2 2 2 2 2 2 6 6 5 5 5 4 3 3 2 2 2 3 3 3 4 5 6 6 5 5
3 2 2 3 3 3 3 2 2 2 2 2 2 1 2 2 2 2 2 2 2 2 2 3 5 6 7 5 4 3 2 2 1 2 2 2 2 3 4 4 4 5 5
2 3 2 3 3 3 3 3 3 4 3 2 3 3 2 3 2 2 2 1 2 2 2 2 1 2 5 8 5 4 3 2 2 2 2 2 2 3 4 4 4 4 4
2 3 2 3 3 2 3 3 3 3 3 3 3 3 3 4 3 2 2 2 2 2 2 2 2 1 1 3 6 5 3 2 3 2 2 2 2 3 4 4 5 5 5
2 1 2 2 2 3 3 3 3 4 3 3 2 2 2 1 2 3 3 2 2 1 2 2 2 2 2 1 3 6 3 2 3 3 2 2 2 3 4 4 5 6 6
2 2 2 2 2 2 2 3 3 3 4 3 3 2 2 2 2 2 4 4 3 2 1 1 1 2 2 2 2 3 4 3 3 3 3 3 3 3 3 4 5 6 6
2 2 2 2 2 2 2 2 2 4 3 3 2 2 2 2 3 2 2 2 3 3 2 2 2 2 2 2 2 4 5 3 3 3 3 3 4 4 4 4 5 5 6
2 2 2 2 2 1 2 2 3 3 2 2 3 2 2 2 2 2 2 2 2 2 2 2 3 2 2 2 2 5 4 4 3 3 3 3 4 4 4 5 5 5 5
2 2 1 1 1 1 2 2 3 2 3 3 3 2 2 2 2 2 2 2 2 2 2 3 3 2 2 2 3 4 5 5 4 4 3 3 3 4 4 4 5 4 4
2 2 2 2 2 2 2 2 2 3 2 2 2 2 2 2 2 2 2 2 3 2 3 2 2 2 1 2 2 5 4 6 5 4 4 3 3 3 4 3 3 4 4
3 3 3 3 2 2 2 3 2 3 2 3 3 3 3 2 2 2 2 3 3 3 2 3 2 2 2 1 2 3 3 5 5 5 4 4 4 3 3 3 3 3 3
2 3 3 3 3 3 3 3 3 3 3 2 2 2 3 2 2 2 3 3 3 4 3 1 2 2 1 2 3 3 3 6 6 6 5 5 5 4 4 4 4 4 4
3 3 3 3 3 3 3 3 3 3 3 3 3 3 3 3 2 3 3 3 3 3 4 2 2 2 3 3 2 3 4 5 4 7 6 5 5 5 5 4 5 5 5
3 3 3 4 4 4 4 4 4 3 3 3 4 4 4 3 4 3 3 4 3 3 4 4 2 2 3 3 3 4 3 3 3 6 7 7 6 6 6 6 5 5 5
3 3 3 3 4 4 5 4 4 4 4 4 4 4 4 4 4 3 4 4 3 3 3 4 3 2 3 3 3 4 4 4 5 5 8 9 7 7 7 7 7 6 6
4 4 4 4 4 4 5 4 4 4 4 4 4 4 5 5 4 4 4 4 4 4 4 4 3 3 3 2 3 3 3 3 4 4 3 5 7 9 9 9 8 7 6
4 4 4 4 4 4 4 4 4 5 5 4 5 5 4 4 3 4 4 4 4 4 4 4 4 3 2 2 3 3 3 4 3 3 4 4 5 5 7 9 9 7 7
4 4 4 4 4 3 3 2 4 4 4 5 5 4 4 6 6 7 6 5 5 6 5 5 4 4 3 4 3 4 4 4 4 2 4 4 3 3 3 3 5 7 7
4 4 4 4 4 3 4 4 4 5 5 5 5 5 4 2 5 6 6 8 8 8 7 7 6 6 5 4 4 6 4 5 5 3 3 5 3 4 4 3 7 7 7
3 3 4 4 4 4 5 5 5 7 6 6 6 6 5 5 4 5 6 7 6 6 7 8 6 6 5 4 5 6 6 5 6 4 3 5 3 4 4 3 8 9 8
4 4 4 5 5 4 6 6 6 5 5 6 6 6 6 6 3 4 6 6 6 5 5 5 5 5 4 5 5 5 5 5 5 3 3 4 4 4 4 3 4 10 9
4 5 4 5 5 5 6 7 8 6 5 5 5 6 6 6 5 6 6 6 6 5 4 4 6 7 8 7 8 7 6 5 4 3 1 3 4 3 3 3 2 3 5
Wind_Direction
209 198 192 201 213 197 194 208 215 200 216 210 210 207 228 237 245 243 133 142 172 204 219 219 206 191 181 176 170 164 166 171 173 169 170 176 176 181 186 190 192 192 192
210 206 198 197 205 211 227 229 213 210 221 221 219 221 235 232 215 246 236 154 163 175 185 196 200 193 188 180 160 159 166 167 170 169 175 179 181 186 193 198 194 190 192
199 216 205 206 204 205 206 217 205 212 213 212 215 221 220 229 217 213 234 234 171 164 165 178 188 187 182 166 150 150 153 166 170 175 179 182 188 194 199 200 196 192 192
199 214 208 206 196 213 211 200 213 213 212 219 224 227 210 199 207 213 217 219 228 176 156 161 162 158 149 141 137 134 126 137 156 167 175 184 193 200 200 200 203 205 203
196 214 208 187 207 212 215 219 196 218 211 225 225 214 221 209 204 202 214 215 190 201 170 151 160 154 149 144 145 146 145 142 149 173 192 197 196 196 198 202 205 208 210
190 211 193 188 215 208 207 203 195 214 222 223 237 219 225 208 206 188 216 195 182 197 185 168 168 160 157 155 155 158 165 182 193 191 198 203 194 185 186 198 205 206 210
182 211 200 178 212 201 204 202 208 197 207 207 210 201 200 205 189 193 207 205 170 179 183 177 182 167 159 163 169 175 187 203 220 213 199 190 198 198 203 211 208 206 209
204 203 200 204 200 194 198 204 214 228 211 208 232 229 207 188 192 178 191 194 201 198 186 170 149 174 216 165 140 166 188 205 206 194 199 205 212 209 215 217 216 214 215
192 212 203 217 204 212 190 202 214 228 228 209 231 263 259 229 178 170 182 180 186 200 201 166 182 172 211 213 166 157 167 190 192 185 189 210 221 226 227 225 224 223 223
188 188 196 194 210 212 188 207 205 228 234 224 198 229 288 330 260 186 183 180 186 200 209 221 196 183 204 212 154 120 156 191 207 202 200 204 213 226 235 232 233 233 232
172 176 180 188 203 214 205 228 218 234 230 242 232 203 204 215 252 255 203 192 193 196 199 210 224 216 199 216 207 141 151 182 214 220 217 229 234 235 242 244 238 238 237
174 172 181 186 207 223 208 215 220 220 237 240 252 245 231 227 232 242 228 220 223 204 207 217 222 213 211 213 173 121 160 187 209 212 219 238 243 249 252 253 247 243 240
175 166 190 189 191 217 217 212 215 223 213 215 233 247 256 259 259 270 269 251 250 221 202 219 205 202 211 207 150 148 170 185 203 210 219 231 240 246 254 258 247 249 251
181 176 194 198 190 203 209 198 210 210 208 215 221 237 245 247 252 255 263 260 251 227 198 208 205 198 214 218 127 208 180 171 196 208 219 225 231 237 245 251 249 249 251
196 191 195 194 189 188 200 203 207 212 204 215 204 201 230 220 237 246 255 268 274 270 241 185 205 182 218 225 173 232 221 157 187 205 213 221 224 226 233 235 236 245 252
207 200 196 185 187 182 182 203 204 197 203 210 220 220 239 230 229 235 250 259 266 277 279 227 222 193 208 248 190 244 234 178 187 196 205 218 224 224 229 233 231 234 240
200 205 202 190 189 187 186 196 215 201 208 206 213 208 217 250 246 238 237 246 249 260 269 267 235 183 206 245 238 250 235 230 187 179 193 208 216 221 225 228 230 230 232
202 200 200 197 195 195 198 205 213 202 207 210 213 216 223 218 230 245 248 251 252 255 262 267 262 232 223 224 235 250 246 239 230 168 184 198 207 215 218 221 225 227 229
204 207 203 203 203 204 207 211 211 210 214 220 218 219 226 227 234 235 249 256 252 242 246 256 256 250 239 225 234 240 241 246 242 193 187 191 199 208 214 219 221 224 226
209 211 211 210 212 214 208 205 210 213 218 222 223 223 226 231 236 243 242 245 253 255 245 252 253 246 238 230 240 251 249 235 246 245 233 216 197 203 210 213 217 221 226
209 210 214 219 220 217 209 209 212 213 220 227 227 228 226 225 241 254 265 259 255 253 252 255 256 257 256 255 255 264 267 267 240 245 260 243 213 217 204 205 209 215 224
210 211 213 215 221 221 137 194 244 224 225 230 234 238 230 213 211 221 236 249 260 256 261 264 263 268 270 266 275 271 274 274 269 233 267 263 246 247 239 226 173 192 216
207 218 223 222 222 198 164 189 226 239 234 236 240 245 253 236 225 231 215 218 228 233 241 259 266 274 275 275 272 268 261 267 281 288 269 268 250 249 245 192 166 191 209
210 219 226 227 225 202 179 195 215 233 240 239 240 239 245 247 243 246 242 235 234 222 221 232 255 265 278 286 271 268 268 261 253 239 245 269 270 271 266 225 175 192 210
214 221 222 222 224 209 188 194 217 234 232 236 237 233 235 236 192 228 240 241 243 238 214 219 245 259 277 271 267 265 256 252 261 254 221 263 275 281 270 249 187 189 205
219 225 220 221 223 222 189 194 212 240 235 235 225 219 213 224 191 208 233 239 242 250 253 227 223 229 235 230 221 237 256 260 267 272 214 253 271 282 278 263 255 209 212